Погода в Махдие

Тунис     35°29′32″N   11°02′42″E
темп.,
°C
ветер,
м/с
пор.,
м/с
влажн.,
%
обл.,
%
осадки,
мм/ч
давл.,
гПа
погр.,
м
8 марта, пн
пн801:00+14вюв698990 0.1 1015480
04:00+15юв6886100 0.3 1012594
07:00+14ююв4787100 0.4 1013276
10:00+17юв566488 0.0 1012738
13:00+17вюв656869 0.0 1011671
16:00+17вюв55698 0.0 1011456
19:00+14юв678514 0.1 1012339
22:00+14ююв57850 0.0 1014298
9 марта, вт
вт901:00+13ююв34890 0.0 101496
04:00+12ю33920 0.0 101344
07:00+12ю349336 0.0 101462
10:00+17ююв4568100 0.0 1015626
13:00+19ююв6656100 0.0 10141034
16:00+18ююв886156 0.0 1012751
19:00+15ю468028 0.1 1013294
22:00+14зюз118094 6.2 1016189
10 марта, ср
ср1001:00+14ссз588096 6.6 1016483
04:00+12сз588062 0.0 1015243
07:00+12ссз7127763 0.0 1016569
10:00+15ссз9115739 0.0 1018978
13:00+17ссз9104720 0.0 10191256
16:00+16с910550 0.0 10181405
19:00+14с710629 0.0 1020636
22:00+12ссз8136334 0.0 1022717
11 марта, чт
чт1101:00+11ссз8126817 0.0 1022534
04:00+11с610760 0.0 1022247
07:00+12с711690 0.1 1023287
10:00+15с810557 0.0 10261418
13:00+16с795629 0.1 10251294
16:00+16ссв895522 0.0 10241086
19:00+14ссв7107011 0.0 1025516
22:00+13с69730 0.0 1027300
12 марта, пт
пт1201:00+12с58740 0.0 1027170
04:00+11ссв44750 0.0 102569
07:00+11ссв34754 0.0 102564
10:00+14в446226 0.0 10261014
13:00+16юв544934 0.0 10241113
16:00+15вюв435054 0.0 1021608
19:00+13вюв576677 0.0 1021381
22:00+13юв4572100 0.0 1022187